Bellaire, MI

9:44 PM EST on December 14, 2019 (GMT -0500)
Antrim County

Weather History for KACB - November, 2019

Change the Weather History Date:

Friday, November 15, 2019

  Actual Average (KCVX) Record (KCVX)
Temperature  
Mean Temperature 27 °F -  
Max Temperature 38 °F 42 °F 64 °F (2001)
Min Temperature 17 °F 29 °F 19 °F (2018)
Degree Days  
Heating Degree Days 38    
Moisture  
Dew Point 22 °F    
Average Humidity 65    
Maximum Humidity 81    
Minimum Humidity 50    
Precipitation  
Precipitation 0.00 in - - ()
Sea Level Pressure  
Sea Level Pressure 30.27 in    
Wind  
Wind Speed 6 mph ()    
Max Wind Speed 12 mph    
Max Gust Speed 20 mph    
Visibility 9.9 miles    
Events Snow    
Averages and records for this station are not official NWS values.
T = Trace of Precipitation, MM = Missing Value Source: Averaged Metar Reports

Daily Weather History Graph

Daily Weather History Graph

Search for Another Location

Airport or City:

Astronomy

Nov. 15, 2019 Rise Set
Actual Time 7:38 AM EST 5:12 PM EST
Civil Twilight 7:06 AM EST 5:43 PM EST
Nautical Twilight 6:30 AM EST 6:19 PM EST
Astronomical Twilight 5:56 AM EST 6:54 PM EST
Moon 7:42 PM EST 10:38 AM EST
Length of Visible Light 10h 37m
Length of Day
9h 33m
Waning Gibbous, 90% of the Moon is Illuminated
Nov 15
Waning Gibbous
Nov 19
Last Quarter
Nov 26
New
Dec 4
First Quarter
Dec 12
Full

Hourly Weather History & Observations

Time (EST) Temp. Windchill Dew Point Humidity Pressure Visibility Wind Dir Wind Speed Gust Speed Precip Events Conditions
12:15 AM 32.5 °F 26.2 °F 26.6 °F 79% 30.08 in 7.0 mi WSW 6.9 mph - N/A Snow Light Snow
12:16 AM 32.5 °F 25.5 °F 26.6 °F 79% 30.08 in 7.0 mi WSW 8.1 mph - N/A Snow Light Snow
12:35 AM 32.5 °F 24.8 °F 27.3 °F 81% 30.08 in 10.0 mi SW 9.2 mph 18.4 mph N/A   Overcast
12:36 AM 32.5 °F 24.2 °F 27.3 °F 81% 30.09 in 10.0 mi WSW 10.4 mph 18.4 mph N/A   Overcast
12:55 AM 32.9 °F 25.9 °F 27.5 °F 81% 30.09 in 10.0 mi WSW 8.1 mph - N/A   Overcast
1:15 AM 33.4 °F 26.6 °F 27.7 °F 79% 30.08 in 10.0 mi WSW 8.1 mph 19.6 mph N/A   Overcast
1:35 AM 33.8 °F 27.0 °F 27.5 °F 78% 30.09 in 10.0 mi WSW 8.1 mph - N/A   Overcast
1:55 AM 34.2 °F 29.0 °F 27.0 °F 75% 30.09 in 10.0 mi WSW 5.8 mph - N/A   Overcast
2:15 AM 34.7 °F 28.8 °F 25.9 °F 70% 30.09 in 10.0 mi West 6.9 mph - N/A   Overcast
2:16 AM 34.7 °F 28.8 °F 25.7 °F 70% 30.09 in 10.0 mi West 6.9 mph - N/A   Overcast
2:35 AM 34.7 °F 29.6 °F 25.7 °F 70% 30.09 in 10.0 mi West 5.8 mph - N/A   Overcast
2:36 AM 34.7 °F 28.1 °F 25.7 °F 70% 30.09 in 10.0 mi West 8.1 mph - N/A   Overcast
2:55 AM 34.5 °F 31.6 °F 25.3 °F 69% 30.10 in 10.0 mi West 3.5 mph - N/A   Overcast
2:56 AM 34.3 °F 30.2 °F 25.3 °F 70% 30.10 in 10.0 mi West 4.6 mph - N/A   Overcast
3:15 AM 34.7 °F 28.1 °F 25.3 °F 69% 30.10 in 10.0 mi West 8.1 mph - N/A   Overcast
3:35 AM 34.7 °F 29.6 °F 25.5 °F 69% 30.10 in 10.0 mi West 5.8 mph 17.3 mph N/A   Overcast
3:55 AM 34.7 °F 29.6 °F 25.7 °F 70% 30.10 in 10.0 mi West 5.8 mph - N/A   Overcast
4:15 AM 34.9 °F 29.9 °F 25.7 °F 69% 30.10 in 10.0 mi West 5.8 mph - N/A   Overcast
4:35 AM 35.1 °F 30.1 °F 25.7 °F 69% 30.10 in 10.0 mi West 5.8 mph - N/A   Overcast
4:55 AM 35.1 °F 30.1 °F 25.7 °F 69% 30.11 in 10.0 mi West 5.8 mph - N/A   Overcast
5:15 AM 35.4 °F 32.6 °F 25.3 °F 67% 30.12 in 10.0 mi West 3.5 mph - N/A   Overcast
5:35 AM 35.6 °F 30.7 °F 25.5 °F 67% 30.12 in 10.0 mi West 5.8 mph - N/A   Overcast
5:55 AM 35.6 °F 29.2 °F 25.3 °F 66% 30.13 in 10.0 mi West 8.1 mph - N/A   Overcast
6:15 AM 35.8 °F 30.9 °F 25.5 °F 66% 30.13 in 10.0 mi West 5.8 mph - N/A   Overcast
6:16 AM 35.8 °F 31.9 °F 25.5 °F 66% 30.13 in 10.0 mi West 4.6 mph - N/A   Overcast
6:35 AM 35.8 °F 30.1 °F 25.3 °F 66% 30.14 in 10.0 mi West 6.9 mph - N/A   Overcast
6:36 AM 35.8 °F 33.0 °F 25.2 °F 65% 30.14 in 10.0 mi West 3.5 mph - N/A   Overcast
6:55 AM 36.0 °F 31.1 °F 24.8 °F 64% 30.15 in 10.0 mi WNW 5.8 mph - N/A   Overcast
6:56 AM 36.0 °F 31.1 °F 24.8 °F 64% 30.15 in 10.0 mi WNW 5.8 mph - N/A   Overcast
7:15 AM 35.8 °F 29.4 °F 25.0 °F 65% 30.15 in 10.0 mi West 8.1 mph - N/A   Overcast
7:35 AM 35.8 °F 30.1 °F 24.6 °F 64% 30.15 in 10.0 mi WNW 6.9 mph - N/A   Overcast
7:36 AM 35.8 °F 30.9 °F 24.6 °F 64% 30.16 in 10.0 mi West 5.8 mph - N/A   Overcast
7:55 AM 35.8 °F 31.9 °F 23.9 °F 62% 30.17 in 10.0 mi WNW 4.6 mph - N/A   Overcast
8:15 AM 36.1 °F 31.4 °F 24.4 °F 63% 30.17 in 10.0 mi WNW 5.8 mph - N/A   Overcast
8:35 AM 36.0 °F 30.3 °F 23.9 °F 62% 30.18 in 10.0 mi West 6.9 mph - N/A   Mostly Cloudy
8:36 AM 36.0 °F 30.3 °F 23.9 °F 62% 30.18 in 10.0 mi West 6.9 mph - N/A   Mostly Cloudy
8:55 AM 36.1 °F 29.9 °F 23.0 °F 59% 30.18 in 10.0 mi WNW 8.1 mph - N/A   Mostly Cloudy
8:56 AM 36.1 °F 30.6 °F 22.8 °F 58% 30.18 in 10.0 mi WNW 6.9 mph - N/A   Mostly Cloudy
9:15 AM 36.5 °F 30.3 °F 23.0 °F 58% 30.19 in 10.0 mi WNW 8.1 mph - N/A   Mostly Cloudy
9:16 AM 36.5 °F 32.7 °F 23.0 °F 58% 30.19 in 10.0 mi WNW 4.6 mph - N/A   Mostly Cloudy
9:35 AM 36.5 °F 29.7 °F 22.8 °F 58% 30.20 in 10.0 mi WNW 9.2 mph - N/A   Overcast
9:55 AM 36.5 °F 30.3 °F 22.5 °F 57% 30.20 in 10.0 mi NW 8.1 mph - N/A   Overcast
10:15 AM 36.5 °F 32.7 °F 23.4 °F 59% 30.22 in 10.0 mi NW 4.6 mph - N/A   Overcast
10:35 AM 35.8 °F 30.1 °F 22.3 °F 58% 30.22 in 10.0 mi NW 6.9 mph 16.1 mph N/A   Overcast
10:36 AM 35.8 °F 30.1 °F 22.1 °F 58% 30.22 in 10.0 mi NW 6.9 mph 16.1 mph N/A   Overcast
10:55 AM 36.5 °F 30.3 °F 21.0 °F 54% 30.23 in 10.0 mi NW 8.1 mph 16.1 mph N/A   Mostly Cloudy
10:56 AM 36.5 °F 30.3 °F 21.0 °F 54% 30.23 in 10.0 mi WNW 8.1 mph 16.1 mph N/A   Mostly Cloudy
11:15 AM 37.9 °F 31.5 °F 20.7 °F 50% 30.24 in 10.0 mi West 9.2 mph - N/A   Mostly Cloudy
11:35 AM 36.5 °F 30.3 °F 21.7 °F 55% 30.25 in 10.0 mi North 8.1 mph - N/A   Overcast
11:36 AM 36.5 °F 31.0 °F 21.6 °F 55% 30.25 in 10.0 mi North 6.9 mph - N/A   Overcast
11:55 AM 35.8 °F 28.3 °F 21.0 °F 55% 30.25 in 10.0 mi NW 10.4 mph 18.4 mph N/A   Overcast
12:15 PM 36.1 °F 30.6 °F 20.5 °F 53% 30.26 in 10.0 mi NW 6.9 mph 17.3 mph N/A   Overcast
12:16 PM 36.3 °F 28.9 °F 20.5 °F 53% 30.26 in 10.0 mi NW 10.4 mph 17.3 mph N/A   Overcast
12:55 PM 36.0 °F 29.0 °F 20.8 °F 54% 30.27 in 10.0 mi NW 9.2 mph - N/A   Overcast
1:15 PM 34.9 °F 29.0 °F 22.3 °F 60% 30.28 in 10.0 mi NNW 6.9 mph 17.3 mph N/A   Overcast
1:35 PM 34.7 °F 28.1 °F 21.7 °F 59% 30.29 in 10.0 mi NW 8.1 mph - N/A   Overcast
1:36 PM 34.7 °F 28.8 °F 21.6 °F 59% 30.29 in 10.0 mi NW 6.9 mph - N/A   Overcast
1:55 PM 34.7 °F 28.8 °F 21.0 °F 57% 30.30 in 10.0 mi NW 6.9 mph - N/A   Overcast
1:56 PM 34.7 °F 28.8 °F 20.8 °F 57% 30.30 in 10.0 mi NW 6.9 mph - N/A   Overcast
2:15 PM 34.7 °F 30.6 °F 20.8 °F 57% 30.30 in 10.0 mi NNW 4.6 mph - N/A   Overcast
2:16 PM 34.7 °F - 20.8 °F 57% 30.30 in 10.0 mi Calm Calm - N/A   Overcast
2:35 PM 34.3 °F 31.4 °F 20.5 °F 57% 30.31 in 10.0 mi NNW 3.5 mph - N/A   Overcast
2:36 PM 34.3 °F 31.4 °F 20.5 °F 57% 30.31 in 10.0 mi NW 3.5 mph - N/A   Overcast
2:55 PM 34.3 °F 30.2 °F 21.2 °F 59% 30.32 in 10.0 mi NNW 4.6 mph - N/A   Overcast
2:56 PM 34.3 °F 28.4 °F 21.2 °F 59% 30.32 in 10.0 mi NNW 6.9 mph - N/A   Overcast
3:15 PM 34.5 °F 29.4 °F 19.9 °F 55% 30.32 in 10.0 mi NNW 5.8 mph - N/A   Overcast
3:35 PM 33.8 °F 27.7 °F 21.9 °F 62% 30.34 in 10.0 mi NNW 6.9 mph - N/A   Overcast
3:55 PM 32.9 °F 28.5 °F 23.0 °F 67% 30.35 in 10.0 mi NNW 4.6 mph - N/A   Overcast
4:15 PM 32.4 °F 26.0 °F 22.5 °F 67% 30.36 in 10.0 mi North 6.9 mph - N/A   Overcast
4:16 PM 32.4 °F 25.3 °F 22.3 °F 66% 30.36 in 10.0 mi North 8.1 mph - N/A   Overcast
4:35 PM 32.0 °F 24.2 °F 22.8 °F 69% 30.37 in 10.0 mi North 9.2 mph - N/A   Overcast
4:55 PM 31.3 °F 23.9 °F 22.1 °F 69% 30.39 in 10.0 mi North 8.1 mph - N/A   Overcast
4:56 PM 31.3 °F 25.6 °F 22.1 °F 69% 30.39 in 10.0 mi North 5.8 mph - N/A   Overcast
5:15 PM 30.2 °F 21.9 °F 21.9 °F 71% 30.41 in 10.0 mi North 9.2 mph - N/A   Overcast
5:16 PM 30.2 °F 21.9 °F 21.9 °F 71% 30.41 in 10.0 mi NNE 9.2 mph - N/A   Overcast
5:35 PM 29.3 °F 20.2 °F 21.0 °F 71% 30.41 in 10.0 mi NNE 10.4 mph - N/A   Overcast
5:55 PM 28.9 °F 20.4 °F 20.3 °F 70% 30.42 in 10.0 mi NNE 9.2 mph - N/A   Overcast
6:15 PM 28.4 °F 22.2 °F 19.9 °F 71% 30.43 in 10.0 mi NNE 5.8 mph 17.3 mph N/A   Overcast
6:35 PM 28.2 °F 22.0 °F 18.5 °F 67% 30.44 in 10.0 mi NNE 5.8 mph 9.2 mph N/A   Overcast
6:55 PM 27.9 °F 17.8 °F 17.1 °F 64% 30.45 in 10.0 mi NNE 11.5 mph 16.1 mph N/A   Overcast
7:15 PM 27.5 °F 22.2 °F 16.3 °F 63% 30.46 in 10.0 mi North 4.6 mph - N/A   Overcast
7:35 PM 27.5 °F 22.2 °F 17.2 °F 65% 30.47 in 10.0 mi NNE 4.6 mph - N/A   Overcast
7:36 PM 27.5 °F 21.1 °F 17.1 °F 65% 30.47 in 10.0 mi NNE 5.8 mph - N/A   Overcast
7:55 PM 27.3 °F 19.9 °F 16.7 °F 64% 30.47 in 10.0 mi NNE 6.9 mph - N/A   Overcast
7:56 PM 27.3 °F 19.9 °F 16.7 °F 64% 30.47 in 10.0 mi NNE 6.9 mph - N/A   Overcast
8:15 PM 27.0 °F 17.3 °F 16.2 °F 64% 30.48 in 10.0 mi NNE 10.4 mph - N/A   Overcast
8:35 PM 26.6 °F 21.2 °F 15.3 °F 62% 30.48 in 10.0 mi North 4.6 mph - N/A   Overcast
8:55 PM 26.1 °F 17.6 °F 15.1 °F 63% 30.49 in 10.0 mi NNE 8.1 mph - N/A   Overcast
9:15 PM 24.8 °F 16.1 °F 14.2 °F 64% 30.49 in 10.0 mi NNE 8.1 mph - N/A   Overcast
9:35 PM 23.9 °F 19.5 °F 13.3 °F 64% 30.50 in 10.0 mi NNE 3.5 mph - N/A   Scattered Clouds
9:55 PM 22.6 °F 14.3 °F 13.5 °F 68% 30.50 in 10.0 mi NE 6.9 mph - N/A   Clear
10:15 PM 21.9 °F 13.4 °F 13.1 °F 69% 30.50 in 10.0 mi NE 6.9 mph - N/A   Clear
10:35 PM 20.8 °F 11.2 °F 12.2 °F 69% 30.50 in 10.0 mi NE 8.1 mph - N/A   Clear
10:55 PM 20.1 °F 12.3 °F 11.7 °F 70% 30.51 in 10.0 mi NE 5.8 mph - N/A   Clear
11:15 PM 19.4 °F 14.3 °F 11.3 °F 71% 30.51 in 10.0 mi NNE 3.5 mph - N/A   Clear
11:35 PM 18.9 °F - 11.3 °F 72% 30.52 in 10.0 mi Calm Calm - N/A   Clear
11:55 PM 17.6 °F - 11.3 °F 76% 30.51 in 10.0 mi Calm Calm - N/A   Clear
11:56 PM 17.4 °F - 11.3 °F 77% 30.51 in 10.0 mi Calm Calm - N/A   Clear